Location: �bnet
(46.9957°N, 8.4908°E)
Time: 00:15:44
(UTC+00:00)

NOSS 3-4 (C) - Pass Details

Date: 11 May 2021
Orbit: 873 x 1339 km, 63.4° (Epoch: 06 May)

Event Time Altitude Azimuth Distance (km) Brightness Sun altitude
Rises 21:10:37 0° 319° (NW) 3,805 8.2 -18.5°
Reaches altitude 10° 21:13:07 10° 319° (NW) 2,911 7.2 -18.7°
Maximum altitude 21:20:06 84° 234° (SW) 1,178 3.8 -19.3°
Enters shadow 21:24:13 31° 148° (SSE) 1,996 4.5 -19.7°
